• In Hungary
  • List of Countries
  • For 7 days
  • Water Temperature
  • Satellite Maps
  • Weather Map
  • News
  • Weather Widgets
  • user-avatar
    Login

    Hourly Weather Calcutta

    Today, 19 July, Thursday

    Time Temperature Precipitation Wind Pressure Humidity
    00:00 +32°C° 0 mm 2 mps 748 mmHg 76%
    01:00 +31°C° 0 mm 2 mps 747 mmHg 78%
    02:00 +31°C° 0 mm 2 mps 747 mmHg 79%
    03:00 +31°C° 0 mm 2 mps 747 mmHg 80%
    04:00 +31°C° 0 mm 2 mps 747 mmHg 81%
    05:00 +31°C° 0 mm 2 mps 747 mmHg 82%
    06:00 +30°C° 0 mm 2 mps 747 mmHg 83%
    07:00 +33°C° 0 mm 3 mps 747 mmHg 77%
    08:00 +34°C° 0 mm 3 mps 748 mmHg 71%
    09:00 +35°C° 0 mm 4 mps 748 mmHg 64%
    10:00 +36°C° 0 mm 4 mps 748 mmHg 61%
    11:00 +37°C° 0 mm 4 mps 747 mmHg 57%
    12:00 +38°C° 0 mm 4 mps 747 mmHg 53%
    13:00 +38°C° 0 mm 4 mps 747 mmHg 53%
    14:00 +38°C° 0 mm 4 mps 746 mmHg 52%
    15:00 +40°C° 0 mm 4 mps 745 mmHg 51%
    16:00 +38°C° 0 mm 4 mps 745 mmHg 53%
    17:00 +38°C° 0 mm 4 mps 745 mmHg 55%
    18:00 +37°C° 0 mm 4 mps 745 mmHg 56%
    19:00 +36°C° 0 mm 4 mps 746 mmHg 60%
    20:00 +35°C° 0 mm 4 mps 746 mmHg 65%
    21:00 +34°C° 0 mm 4 mps 747 mmHg 69%
    22:00 +34°C° 0 mm 4 mps 747 mmHg 71%
    23:00 +33°C° 0 mm 3 mps 747 mmHg 74%

    Tomorrow, 20 July, Friday

    Time Temperature Precipitation Wind Pressure Humidity
    00:00 +33°C° 0 mm 3 mps 747 mmHg 76%
    01:00 +31°C° 0 mm 2 mps 747 mmHg 78%
    02:00 +31°C° 0 mm 2 mps 747 mmHg 79%
    03:00 +31°C° 0 mm 2 mps 746 mmHg 81%
    04:00 +31°C° 0 mm 2 mps 746 mmHg 82%
    05:00 +31°C° 0 mm 2 mps 746 mmHg 83%
    06:00 +31°C° 0 mm 2 mps 746 mmHg 84%
    07:00 +33°C° 0 mm 3 mps 746 mmHg 77%
    08:00 +34°C° 0 mm 3 mps 747 mmHg 70%
    09:00 +35°C° 0 mm 4 mps 747 mmHg 63%
    10:00 +37°C° 0 mm 4 mps 747 mmHg 59%
    11:00 +39°C° 0 mm 5 mps 746 mmHg 55%
    12:00 +40°C° 0 mm 5 mps 746 mmHg 51%
    13:00 +40°C° 0.1 mm 5 mps 746 mmHg 51%
    14:00 +40°C° 0.1 mm 5 mps 745 mmHg 51%
    15:00 +40°C° 0.1 mm 6 mps 744 mmHg 51%
    16:00 +39°C° 0 mm 5 mps 744 mmHg 54%
    17:00 +39°C° 0 mm 5 mps 744 mmHg 56%
    18:00 +37°C° 0 mm 4 mps 744 mmHg 58%
    19:00 +36°C° 0 mm 4 mps 745 mmHg 62%
    20:00 +35°C° 0 mm 4 mps 745 mmHg 66%
    21:00 +34°C° 0 mm 4 mps 746 mmHg 70%
    22:00 +34°C° 0 mm 4 mps 746 mmHg 72%
    23:00 +33°C° 0 mm 4 mps 746 mmHg 73%

    Day after tomorrow, 21 July, Saturday

    Time Temperature Precipitation Wind Pressure Humidity
    00:00 +33°C° 0 mm 4 mps 745 mmHg 75%
    01:00 +33°C° 0 mm 4 mps 745 mmHg 76%
    02:00 +33°C° 0 mm 4 mps 745 mmHg 78%
    03:00 +31°C° 0 mm 3 mps 745 mmHg 79%
    04:00 +32°C° 0 mm 4 mps 744 mmHg 80%
    05:00 +32°C° 0 mm 4 mps 744 mmHg 81%
    06:00 +32°C° 0 mm 4 mps 744 mmHg 82%
    07:00 +33°C° 0 mm 5 mps 745 mmHg 78%
    08:00 +34°C° 0 mm 5 mps 745 mmHg 73%
    09:00 +35°C° 0 mm 5 mps 745 mmHg 68%
    10:00 +36°C° 0 mm 5 mps 745 mmHg 64%
    11:00 +38°C° 0 mm 6 mps 745 mmHg 59%
    12:00 +39°C° 0 mm 6 mps 745 mmHg 55%
    13:00 +39°C° 0.1 mm 5 mps 745 mmHg 54%
    14:00 +40°C° 0.1 mm 5 mps 744 mmHg 52%
    15:00 +40°C° 0.1 mm 5 mps 743 mmHg 51%
    16:00 +39°C° 1 mm 5 mps 743 mmHg 54%
    17:00 +37°C° 1 mm 4 mps 743 mmHg 58%
    18:00 +36°C° 1 mm 4 mps 743 mmHg 61%
    19:00 +36°C° 0.1 mm 3 mps 744 mmHg 64%
    20:00 +35°C° 0.1 mm 3 mps 744 mmHg 67%
    21:00 +34°C° 0.1 mm 2 mps 745 mmHg 70%
    22:00 +34°C° 0.9 mm 2 mps 745 mmHg 72%
    23:00 +33°C° 0.9 mm 3 mps 745 mmHg 75%

    22 July, Sunday

    Time Temperature Precipitation Wind Pressure Humidity
    00:00 +33°C° 0.9 mm 3 mps 745 mmHg 77%
    01:00 +31°C° 0.7 mm 3 mps 744 mmHg 78%
    02:00 +31°C° 0.7 mm 3 mps 744 mmHg 80%
    03:00 +31°C° 0.7 mm 3 mps 744 mmHg 81%
    04:00 +31°C° 0.4 mm 3 mps 744 mmHg 82%
    05:00 +30°C° 0.4 mm 3 mps 744 mmHg 83%
    06:00 +30°C° 0.4 mm 3 mps 744 mmHg 84%
    07:00 +32°C° 0.4 mm 4 mps 744 mmHg 79%
    08:00 +34°C° 0.4 mm 4 mps 745 mmHg 74%
    09:00 +35°C° 0.4 mm 4 mps 745 mmHg 68%
    10:00 +35°C° 1.3 mm 4 mps 745 mmHg 66%
    11:00 +36°C° 1.3 mm 5 mps 745 mmHg 63%
    12:00 +37°C° 1.3 mm 5 mps 744 mmHg 61%
    13:00 +38°C° 1.7 mm 6 mps 744 mmHg 62%
    14:00 +36°C° 1.7 mm 6 mps 743 mmHg 63%
    15:00 +36°C° 1.7 mm 7 mps 743 mmHg 64%
    16:00 +35°C° 1 mm 7 mps 743 mmHg 67%
    17:00 +34°C° 1 mm 7 mps 743 mmHg 71%
    18:00 +33°C° 1 mm 7 mps 744 mmHg 74%
    19:00 +33°C° 0 mm 7 mps 744 mmHg 76%
    20:00 +32°C° 0 mm 6 mps 745 mmHg 78%
    21:00 +32°C° 0 mm 6 mps 745 mmHg 80%
    22:00 +32°C° 0.1 mm 5 mps 745 mmHg 80%
    23:00 +32°C° 0.1 mm 5 mps 745 mmHg 81%

    23 July, Monday

    Time Temperature Precipitation Wind Pressure Humidity
    00:00 +30°C° 0.1 mm 5 mps 745 mmHg 82%
    01:00 +30°C° 0.1 mm 5 mps 745 mmHg 83%
    02:00 +30°C° 0.1 mm 5 mps 745 mmHg 83%
    03:00 +30°C° 0.1 mm 5 mps 745 mmHg 84%
    04:00 +30°C° 0.1 mm 4 mps 745 mmHg 84%
    05:00 +30°C° 0.1 mm 4 mps 745 mmHg 85%
    06:00 +30°C° 0.1 mm 4 mps 746 mmHg 85%
    07:00 +32°C° 0.5 mm 5 mps 746 mmHg 80%
    08:00 +33°C° 0.5 mm 5 mps 746 mmHg 75%
    09:00 +34°C° 0.5 mm 5 mps 747 mmHg 71%
    10:00 +34°C° 1 mm 6 mps 747 mmHg 68%
    11:00 +35°C° 1 mm 6 mps 747 mmHg 66%
    12:00 +36°C° 1 mm 6 mps 747 mmHg 63%
    13:00 +36°C° 1.7 mm 6 mps 746 mmHg 62%
    14:00 +36°C° 1.7 mm 6 mps 746 mmHg 62%
    15:00 +36°C° 1.7 mm 6 mps 745 mmHg 61%
    16:00 +36°C° 0.7 mm 6 mps 745 mmHg 64%
    17:00 +35°C° 0.7 mm 6 mps 745 mmHg 66%
    18:00 +34°C° 0.7 mm 6 mps 745 mmHg 69%
    19:00 +34°C° 0.1 mm 5 mps 746 mmHg 72%
    20:00 +33°C° 0.1 mm 5 mps 747 mmHg 76%
    21:00 +32°C° 0.1 mm 5 mps 747 mmHg 79%
    22:00 +32°C° 0.3 mm 4 mps 747 mmHg 80%
    23:00 +32°C° 0.3 mm 4 mps 747 mmHg 80%

    24 July, Tuesday

    Time Temperature Precipitation Wind Pressure Humidity
    00:00 +32°C° 0.3 mm 4 mps 748 mmHg 81%
    01:00 +30°C° 1 mm 3 mps 747 mmHg 81%
    02:00 +30°C° 1 mm 3 mps 747 mmHg 82%
    03:00 +30°C° 1 mm 3 mps 747 mmHg 82%
    04:00 +30°C° 0.7 mm 3 mps 747 mmHg 83%
    05:00 +30°C° 0.7 mm 2 mps 748 mmHg 83%
    06:00 +30°C° 0.7 mm 2 mps 748 mmHg 83%
    07:00 +31°C° 0.4 mm 2 mps 748 mmHg 77%
    08:00 +32°C° 0.4 mm 2 mps 749 mmHg 72%
    09:00 +34°C° 0.4 mm 3 mps 749 mmHg 66%
    10:00 +35°C° 0 mm 3 mps 749 mmHg 61%
    11:00 +36°C° 0 mm 3 mps 749 mmHg 56%
    12:00 +37°C° 0 mm 3 mps 749 mmHg 52%
    13:00 +37°C° 0 mm 3 mps 748 mmHg 52%
    14:00 +37°C° 0 mm 3 mps 748 mmHg 51%
    15:00 +37°C° 0 mm 3 mps 747 mmHg 51%
    16:00 +37°C° 0 mm 3 mps 747 mmHg 54%
    17:00 +36°C° 0 mm 4 mps 748 mmHg 57%
    18:00 +35°C° 0 mm 4 mps 748 mmHg 61%
    19:00 +35°C° 0 mm 4 mps 748 mmHg 64%
    20:00 +34°C° 0 mm 5 mps 749 mmHg 68%
    21:00 +33°C° 0 mm 5 mps 749 mmHg 72%
    22:00 +33°C° 0.3 mm 5 mps 749 mmHg 73%
    23:00 +32°C° 0.3 mm 5 mps 749 mmHg 74%
    Show more